| time (UTC) | temp C | wind direction | speed KPH | gust KPH | rain 1hr cm | rain 24hr cm | rain mn cm | humidity % | barometer mb |
| 20260902100012 | 34 | 45 | 19.3 | 37.0 | 0.00 | 0.00 | 0.00 | 28 | 1016.8 |
| 20260902095511 | 33 | 49 | 17.7 | 40.2 | 0.00 | 0.00 | 0.00 | 28 | 1016.8 |
| 20260902095011 | 33 | 25 | 22.5 | 40.2 | 0.00 | 0.00 | 0.00 | 29 | 1016.8 |
| 20260902094507 | 33 | 81 | 25.7 | 46.7 | 0.00 | 0.00 | 0.00 | 28 | 1016.8 |
| 20260902094006 | 33 | 107 | 25.7 | 49.9 | 0.00 | 0.00 | 0.00 | 28 | 1016.9 |
| 20260902093503 | 33 | 89 | 19.3 | 49.9 | 0.00 | 0.00 | 0.00 | 29 | 1016.8 |
| 20260902093002 | 33 | 97 | 19.3 | 53.1 | 0.00 | 0.00 | 0.00 | 29 | 1016.8 |
| 20260902092501 | 33 | 86 | 25.7 | 53.1 | 0.00 | 0.00 | 0.00 | 29 | 1016.8 |
| 20260902092103 | 33 | 52 | 22.5 | 43.5 | 0.00 | 0.00 | 0.00 | 30 | 1016.7 |
| 20260902091558 | 33 | 54 | 20.9 | 43.5 | 0.00 | 0.00 | 0.00 | 29 | 1016.7 |
| 20260902091058 | 33 | 47 | 25.7 | 51.5 | 0.00 | 0.00 | 0.00 | 29 | 1016.6 |
| 20260902090556 | 33 | 28 | 32.2 | 51.5 | 0.00 | 0.00 | 0.00 | 30 | 1016.5 |
| 20260902090100 | 33 | 86 | 22.5 | 45.1 | 0.00 | 0.00 | 0.00 | 30 | 1016.5 |
| 20260902085554 | 33 | 67 | 24.1 | 41.8 | 0.00 | 0.00 | 0.00 | 30 | 1016.4 |
| 20260902085050 | 33 | 57 | 27.4 | 43.5 | 0.00 | 0.00 | 0.00 | 32 | 1016.4 |
| 20260902084549 | 33 | 68 | 25.7 | 43.5 | 0.00 | 0.00 | 0.00 | 31 | 1016.5 |
| 20260902084048 | 33 | 55 | 19.3 | 37.0 | 0.00 | 0.00 | 0.00 | 32 | 1016.5 |
| 20260902083546 | 33 | 355 | 19.3 | 41.8 | 0.00 | 0.00 | 0.00 | 33 | 1016.5 |
| 20260902083046 | 32 | 69 | 20.9 | 38.6 | 0.00 | 0.00 | 0.00 | 32 | 1016.4 |
| 20260902082543 | 33 | 27 | 22.5 | 45.1 | 0.00 | 0.00 | 0.00 | 32 | 1016.4 |
| 20260902082042 | 33 | 14 | 17.7 | 45.1 | 0.00 | 0.00 | 0.00 | 33 | 1016.4 |
| 20260902081543 | 32 | 63 | 17.7 | 35.4 | 0.00 | 0.00 | 0.00 | 33 | 1016.4 |
| 20260902081040 | 32 | 47 | 22.5 | 40.2 | 0.00 | 0.00 | 0.00 | 33 | 1016.4 |
| 20260902080538 | 32 | 67 | 20.9 | 40.2 | 0.00 | 0.00 | 0.00 | 34 | 1016.5 |
| 20260902080037 | 32 | 83 | 20.9 | 40.2 | 0.00 | 0.00 | 0.00 | 34 | 1016.5 |
| 20260902075536 | 32 | 80 | 16.1 | 40.2 | 0.00 | 0.00 | 0.00 | 35 | 1016.6 |
| 20260902075035 | 32 | 67 | 19.3 | 38.6 | 0.00 | 0.00 | 0.00 | 34 | 1016.5 |
| 20260902074543 | 32 | 59 | 17.7 | 38.6 | 0.00 | 0.00 | 0.00 | 34 | 1016.5 |
| 20260902074032 | 32 | 52 | 19.3 | 40.2 | 0.00 | 0.00 | 0.00 | 34 | 1016.6 |
| 20260902073530 | 31 | 30 | 22.5 | 41.8 | 0.00 | 0.00 | 0.00 | 34 | 1016.6 |
| 20260902073028 | 31 | 159 | 17.7 | 41.8 | 0.00 | 0.00 | 0.00 | 35 | 1016.6 |
| 20260902072526 | 31 | 29 | 16.1 | 35.4 | 0.00 | 0.00 | 0.00 | 35 | 1016.6 |
| 20260902072026 | 31 | 40 | 16.1 | 32.2 | 0.00 | 0.00 | 0.00 | 36 | 1016.6 |
| 20260902071524 | 31 | 59 | 19.3 | 35.4 | 0.00 | 0.00 | 0.00 | 35 | 1016.6 |
| 20260902071022 | 31 | 44 | 16.1 | 25.7 | 0.00 | 0.00 | 0.00 | 36 | 1016.7 |
| 20260902070521 | 31 | 76 | 11.3 | 27.4 | 0.00 | 0.00 | 0.00 | 36 | 1016.5 |
| 20260902070020 | 31 | 71 | 12.9 | 27.4 | 0.00 | 0.00 | 0.00 | 36 | 1016.4 |
| 20260902065519 | 31 | 84 | 12.9 | 33.8 | 0.00 | 0.00 | 0.00 | 36 | 1016.5 |
| 20260902065017 | 31 | 79 | 20.9 | 33.8 | 0.00 | 0.00 | 0.00 | 36 | 1016.4 |
| 20260902064520 | 31 | 58 | 17.7 | 29.0 | 0.00 | 0.00 | 0.00 | 37 | 1016.5 |
| 20260902064013 | 31 | 68 | 14.5 | 30.6 | 0.00 | 0.00 | 0.00 | 36 | 1016.4 |
| 20260902063511 | 31 | 51 | 16.1 | 29.0 | 0.00 | 0.00 | 0.00 | 36 | 1016.4 |
| 20260902063017 | 31 | 71 | 14.5 | 24.1 | 0.00 | 0.00 | 0.00 | 36 | 1016.4 |
| 20260902062510 | 30 | 117 | 11.3 | 29.0 | 0.00 | 0.00 | 0.00 | 37 | 1016.4 |
| 20260902062008 | 30 | 88 | 12.9 | 29.0 | 0.00 | 0.00 | 0.00 | 37 | 1016.4 |
| 20260902061516 | 30 | 105 | 6.4 | 17.7 | 0.00 | 0.00 | 0.00 | 39 | 1016.4 |
| 20260902061006 | 30 | 329 | 4.8 | 24.1 | 0.00 | 0.00 | 0.00 | 39 | 1016.4 |
| 20260902060503 | 30 | 108 | 8.0 | 24.1 | 0.00 | 0.00 | 0.00 | 39 | 1016.4 |
| 20260902060009 | 30 | 116 | 6.4 | 19.3 | 0.00 | 0.00 | 0.00 | 39 | 1016.3 |
| 20260902055503 | 30 | 130 | 6.4 | 14.5 | 0.00 | 0.00 | 0.00 | 39 | 1016.4 |
| 20260902055100 | 29 | 80 | 3.2 | 16.1 | 0.00 | 0.00 | 0.00 | 40 | 1016.4 |
| 20260902054600 | 29 | 119 | 3.2 | 19.3 | 0.00 | 0.00 | 0.00 | 40 | 1016.4 |
| 20260902054057 | 29 | 148 | 3.2 | 20.9 | 0.00 | 0.00 | 0.00 | 39 | 1016.3 |
| 20260902053555 | 29 | 87 | 14.5 | 20.9 | 0.00 | 0.00 | 0.00 | 40 | 1016.4 |
| 20260902053103 | 29 | 123 | 8.0 | 16.1 | 0.00 | 0.00 | 0.00 | 41 | 1016.4 |
| 20260902052554 | 28 | 160 | 8.0 | 11.3 | 0.00 | 0.00 | 0.00 | 42 | 1016.3 |
| 20260902052050 | 28 | 153 | 6.4 | 12.9 | 0.00 | 0.00 | 0.00 | 44 | 1016.3 |
| 20260902051554 | 28 | 169 | 8.0 | 11.3 | 0.00 | 0.00 | 0.00 | 46 | 1016.3 |
| 20260902051048 | 27 | 141 | 6.4 | 9.7 | 0.00 | 0.00 | 0.00 | 47 | 1016.5 |
| 20260902050547 | 27 | 136 | 6.4 | 9.7 | 0.00 | 0.00 | 0.00 | 49 | 1016.4 |
| 20260902050048 | 27 | 207 | 3.2 | 6.4 | 0.00 | 0.00 | 0.00 | 50 | 1016.4 |
| 20260902045544 | 27 | 248 | 1.6 | 4.8 | 0.00 | 0.00 | 0.00 | 50 | 1016.3 |
| 20260902045043 | 27 | 212 | 0.0 | 4.8 | 0.00 | 0.00 | 0.00 | 50 | 1016.4 |
| 20260902044545 | 27 | 212 | 1.6 | 4.8 | 0.00 | 0.00 | 0.00 | 51 | 1016.3 |
| 20260902044040 | 26 | 218 | 0.0 | 4.8 | 0.00 | 0.00 | 0.00 | 51 | 1016.3 |
| 20260902043538 | 26 | 214 | 0.0 | 4.8 | 0.00 | 0.00 | 0.00 | 51 | 1016.2 |
| 20260902043037 | 26 | 211 | 1.6 | 4.8 | 0.00 | 0.00 | 0.00 | 51 | 1016.2 |
| 20260902042539 | 26 | 186 | 1.6 | 6.4 | 0.00 | 0.00 | 0.00 | 51 | 1016.2 |
| 20260902042035 | 26 | 196 | 1.6 | 8.0 | 0.00 | 0.00 | 0.00 | 51 | 1016.1 |
| 20260902041538 | 26 | 225 | 3.2 | 6.4 | 0.00 | 0.00 | 0.00 | 51 | 1016.1 |
| 20260902041033 | 26 | 223 | 1.6 | 4.8 | 0.00 | 0.00 | 0.00 | 50 | 1016.1 |
| 20260902040532 | 26 | 198 | 0.0 | 6.4 | 0.00 | 0.00 | 0.00 | 51 | 1016.2 |
| 20260902040032 | 26 | 196 | 0.0 | 6.4 | 0.00 | 0.00 | 0.00 | 51 | 1016.2 |
| 20260902035531 | 26 | 267 | 0.0 | 3.2 | 0.00 | 0.00 | 0.00 | 50 | 1016.1 |
| 20260902035031 | 26 | 262 | 0.0 | 0.0 | 0.00 | 0.00 | 0.00 | 50 | 1016.0 |
| 20260902034534 | 26 | 203 | 0.0 | 4.8 | 0.00 | 0.00 | 0.00 | 50 | 1016.0 |
| 20260902034030 | 26 | 214 | 1.6 | 6.4 | 0.00 | 0.00 | 0.00 | 50 | 1015.9 |
| 20260902033531 | 26 | 186 | 1.6 | 6.4 | 0.00 | 0.00 | 0.00 | 50 | 1015.8 |
| 20260902033030 | 26 | 261 | 3.2 | 6.4 | 0.00 | 0.00 | 0.00 | 50 | 1015.9 |
| 20260902032530 | 26 | 163 | 1.6 | 11.3 | 0.00 | 0.00 | 0.00 | 50 | 1015.7 |
| 20260902032029 | 27 | 99 | 3.2 | 12.9 | 0.00 | 0.00 | 0.00 | 49 | 1015.8 |
| 20260902031530 | 27 | 140 | 9.7 | 12.9 | 0.00 | 0.00 | 0.00 | 49 | 1015.6 |
| 20260902031030 | 27 | 155 | 8.0 | 12.9 | 0.00 | 0.00 | 0.00 | 49 | 1015.6 |
| 20260902030534 | 27 | 128 | 6.4 | 12.9 | 0.00 | 0.00 | 0.00 | 49 | 1015.7 |
| 20260902030029 | 27 | 134 | 8.0 | 16.1 | 0.00 | 0.00 | 0.00 | 49 | 1015.6 |
| 20260902025528 | 27 | 142 | 9.7 | 14.5 | 0.00 | 0.00 | 0.00 | 49 | 1015.6 |
| 20260902025028 | 26 | 128 | 9.7 | 14.5 | 0.00 | 0.00 | 0.00 | 49 | 1015.6 |
| 20260902024527 | 27 | 130 | 4.8 | 11.3 | 0.00 | 0.00 | 0.00 | 49 | 1015.6 |
| 20260902024030 | 27 | 130 | 6.4 | 11.3 | 0.00 | 0.00 | 0.00 | 49 | 1015.5 |
| 20260902023526 | 27 | 132 | 8.0 | 11.3 | 0.00 | 0.00 | 0.00 | 49 | 1015.5 |
| 20260902023028 | 27 | 128 | 3.2 | 8.0 | 0.00 | 0.00 | 0.00 | 49 | 1015.7 |
| 20260902022526 | 27 | 137 | 3.2 | 9.7 | 0.00 | 0.00 | 0.00 | 49 | 1015.6 |
| 20260902022026 | 27 | 123 | 3.2 | 11.3 | 0.00 | 0.00 | 0.00 | 49 | 1015.7 |
| 20260902021525 | 27 | 123 | 4.8 | 11.3 | 0.00 | 0.00 | 0.00 | 49 | 1015.7 |
| 20260902021029 | 27 | 132 | 1.6 | 9.7 | 0.00 | 0.00 | 0.00 | 49 | 1015.7 |
| 20260902020525 | 27 | 126 | 3.2 | 6.4 | 0.00 | 0.00 | 0.00 | 50 | 1015.7 |
| 20260902020025 | 27 | 122 | 1.6 | 9.7 | 0.00 | 0.00 | 0.00 | 50 | 1015.6 |
| 20260902015625 | 27 | 122 | 3.2 | 12.9 | 0.00 | 0.00 | 0.00 | 49 | 1015.7 |
| 20260902015024 | 27 | 111 | 4.8 | 12.9 | 0.00 | 0.00 | 0.00 | 49 | 1015.8 |
| 20260902014533 | 27 | 93 | 4.8 | 14.5 | 0.00 | 0.00 | 0.00 | 49 | 1015.8 |
| 20260902014023 | 27 | 137 | 4.8 | 14.5 | 0.00 | 0.00 | 0.00 | 49 | 1015.9 |
| 20260902013523 | 27 | 105 | 1.6 | 9.7 | 0.00 | 0.00 | 0.00 | 48 | 1015.9 |
| 20260902013023 | 27 | 84 | 0.0 | 6.4 | 0.00 | 0.00 | 0.00 | 48 | 1015.9 |
| 20260902012524 | 27 | 79 | 1.6 | 11.3 | 0.00 | 0.00 | 0.00 | 48 | 1016.0 |
| 20260902012022 | 27 | 142 | 4.8 | 11.3 | 0.00 | 0.00 | 0.00 | 48 | 1015.9 |
| 20260902011524 | 27 | 136 | 6.4 | 11.3 | 0.00 | 0.00 | 0.00 | 48 | 1015.8 |
| 20260902011022 | 27 | 157 | 3.2 | 8.0 | 0.00 | 0.00 | 0.00 | 48 | 1015.8 |
| 20260902010522 | 27 | 162 | 3.2 | 8.0 | 0.00 | 0.00 | 0.00 | 48 | 1015.7 |
| 20260902010031 | 27 | 209 | 1.6 | 4.8 | 0.00 | 0.00 | 0.00 | 50 | 1015.7 |
| 20260902005521 | 27 | 284 | 0.0 | 0.0 | 0.00 | 0.00 | 0.00 | 49 | 1015.8 |
| 20260902005021 | 27 | 304 | 0.0 | 0.0 | 0.00 | 0.00 | 0.00 | 51 | 1015.7 |
| 20260902004521 | 27 | 305 | 0.0 | 0.0 | 0.00 | 0.00 | 0.00 | 51 | 1015.7 |
| 20260902004020 | 26 | 325 | 0.0 | 0.0 | 0.00 | 0.00 | 0.00 | 53 | 1015.8 |
| 20260902003520 | 26 | 329 | 0.0 | 4.8 | 0.00 | 0.00 | 0.00 | 53 | 1015.7 |
| 20260902003019 | 26 | 331 | 1.6 | 4.8 | 0.00 | 0.00 | 0.00 | 53 | 1015.7 |
| 20260902002520 | 26 | 351 | 1.6 | 4.8 | 0.00 | 0.00 | 0.00 | 53 | 1015.7 |
| 20260902002019 | 26 | 5 | 0.0 | 1.6 | 0.00 | 0.00 | 0.00 | 53 | 1015.7 |
| 20260902001523 | 26 | 5 | 0.0 | 4.8 | 0.00 | 0.00 | 0.00 | 53 | 1015.7 |
| 20260902001017 | 27 | 9 | 1.6 | 6.4 | 0.00 | 0.00 | 0.00 | 52 | 1015.7 |
| 20260902000517 | 27 | 9 | 3.2 | 9.7 | 0.00 | 0.00 | 0.00 | 51 | 1015.7 |
| 20260902000021 | 27 | 113 | 1.6 | 11.3 | 0.00 | 0.00 | 0.00 | 49 | 1015.7 |
| 20260901235515 | 27 | 101 | 6.4 | 11.3 | 0.00 | 0.00 | 0.00 | 49 | 1015.7 |
| 20260901235016 | 27 | 101 | 4.8 | 11.3 | 0.00 | 0.00 | 0.00 | 49 | 1015.7 |
| 20260901234515 | 27 | 112 | 6.4 | 11.3 | 0.00 | 0.00 | 0.00 | 50 | 1015.7 |
| 20260901234015 | 27 | 108 | 4.8 | 12.9 | 0.00 | 0.00 | 0.00 | 50 | 1015.7 |
| 20260901233514 | 28 | 93 | 8.0 | 12.9 | 0.00 | 0.00 | 0.00 | 50 | 1015.7 |
| 20260901233014 | 28 | 64 | 6.4 | 12.9 | 0.00 | 0.00 | 0.00 | 50 | 1015.7 |
| 20260901232513 | 28 | 98 | 6.4 | 12.9 | 0.00 | 0.00 | 0.00 | 50 | 1015.8 |
| 20260901232013 | 28 | 103 | 8.0 | 14.5 | 0.00 | 0.00 | 0.00 | 50 | 1015.8 |
| 20260901231514 | 28 | 98 | 6.4 | 16.1 | 0.00 | 0.00 | 0.00 | 50 | 1015.8 |
| 20260901231012 | 28 | 107 | 9.7 | 16.1 | 0.00 | 0.00 | 0.00 | 50 | 1015.8 |
| 20260901230512 | 28 | 86 | 6.4 | 16.1 | 0.00 | 0.00 | 0.00 | 50 | 1015.9 |
| 20260901230013 | 28 | 90 | 9.7 | 16.1 | 0.00 | 0.00 | 0.00 | 50 | 1015.8 |
| 20260901225511 | 28 | 100 | 11.3 | 19.3 | 0.00 | 0.00 | 0.00 | 50 | 1015.9 |
| 20260901225011 | 28 | 95 | 11.3 | 22.5 | 0.00 | 0.00 | 0.00 | 50 | 1015.9 |
| 20260901224511 | 28 | 98 | 12.9 | 20.9 | 0.00 | 0.00 | 0.00 | 51 | 1015.9 |
| 20260901224011 | 28 | 82 | 9.7 | 20.9 | 0.00 | 0.00 | 0.00 | 51 | 1015.8 |
| 20260901223510 | 28 | 98 | 11.3 | 19.3 | 0.00 | 0.00 | 0.00 | 51 | 1015.9 |
| 20260901223010 | 28 | 61 | 9.7 | 17.7 | 0.00 | 0.00 | 0.00 | 52 | 1015.9 |
| 20260901222509 | 28 | 90 | 9.7 | 17.7 | 0.00 | 0.00 | 0.00 | 52 | 1015.9 |
| 20260901222009 | 28 | 38 | 6.4 | 17.7 | 0.00 | 0.00 | 0.00 | 52 | 1016.0 |
| 20260901221508 | 28 | 13 | 6.4 | 19.3 | 0.00 | 0.00 | 0.00 | 52 | 1016.1 |
| 20260901221008 | 28 | 64 | 8.0 | 22.5 | 0.00 | 0.00 | 0.00 | 51 | 1016.1 |
| 20260901220508 | 28 | 98 | 6.4 | 22.5 | 0.00 | 0.00 | 0.00 | 51 | 1016.0 |
| 20260901220012 | 28 | 62 | 6.4 | 20.9 | 0.00 | 0.00 | 0.00 | 51 | 1016.0 |
| 20260901215507 | 28 | 90 | 8.0 | 20.9 | 0.00 | 0.00 | 0.00 | 51 | 1016.0 |
| 20260901215006 | 28 | 59 | 8.0 | 19.3 | 0.00 | 0.00 | 0.00 | 51 | 1016.0 |
| 20260901214507 | 28 | 57 | 8.0 | 17.7 | 0.00 | 0.00 | 0.00 | 51 | 1016.1 |
| 20260901214006 | 28 | 45 | 6.4 | 17.7 | 0.00 | 0.00 | 0.00 | 51 | 1016.0 |
| 20260901213504 | 27 | 76 | 11.3 | 16.1 | 0.00 | 0.00 | 0.00 | 52 | 1015.9 |
| 20260901213003 | 27 | 42 | 6.4 | 14.5 | 0.00 | 0.00 | 0.00 | 52 | 1016.0 |
| 20260901212502 | 27 | 25 | 3.2 | 12.9 | 0.00 | 0.00 | 0.00 | 53 | 1016.0 |
| 20260901212001 | 27 | 74 | 3.2 | 9.7 | 0.00 | 0.00 | 0.00 | 53 | 1016.0 |
| 20260901211600 | 27 | 80 | 4.8 | 8.0 | 0.00 | 0.00 | 0.00 | 54 | 1016.0 |
| 20260901211059 | 27 | 5 | 4.8 | 8.0 | 0.00 | 0.00 | 0.00 | 54 | 1016.0 |
| 20260901210559 | 27 | 13 | 1.6 | 6.4 | 0.00 | 0.00 | 0.00 | 54 | 1016.0 |
| 20260901210058 | 27 | 13 | 3.2 | 8.0 | 0.00 | 0.00 | 0.00 | 54 | 1016.0 |
| 20260901205558 | 27 | 15 | 3.2 | 8.0 | 0.00 | 0.00 | 0.00 | 53 | 1016.0 |
| 20260901205101 | 27 | 35 | 4.8 | 9.7 | 0.00 | 0.00 | 0.00 | 53 | 1016.1 |
| 20260901204558 | 27 | 11 | 3.2 | 9.7 | 0.00 | 0.00 | 0.00 | 53 | 1016.1 |
| 20260901204059 | 27 | 57 | 1.6 | 9.7 | 0.00 | 0.00 | 0.00 | 53 | 1016.0 |
| 20260901203558 | 27 | 55 | 4.8 | 9.7 | 0.00 | 0.00 | 0.00 | 53 | 1016.0 |
| 20260901203056 | 27 | 34 | 6.4 | 12.9 | 0.00 | 0.00 | 0.00 | 52 | 1016.0 |
| 20260901202556 | 27 | 24 | 6.4 | 12.9 | 0.00 | 0.00 | 0.00 | 52 | 1016.0 |
| 20260901202056 | 27 | 5 | 4.8 | 9.7 | 0.00 | 0.00 | 0.00 | 52 | 1016.1 |
| 20260901201601 | 27 | 42 | 4.8 | 14.5 | 0.00 | 0.00 | 0.00 | 51 | 1016.0 |
| 20260901201056 | 27 | 53 | 8.0 | 14.5 | 0.00 | 0.00 | 0.00 | 52 | 1016.0 |
| 20260901200555 | 27 | 26 | 8.0 | 14.5 | 0.00 | 0.00 | 0.00 | 51 | 1016.1 |
| 20260901200055 | 27 | 27 | 8.0 | 16.1 | 0.00 | 0.00 | 0.00 | 51 | 1016.1 |
| 20260901195556 | 28 | 32 | 9.7 | 16.1 | 0.00 | 0.00 | 0.00 | 51 | 1016.1 |
| 20260901195057 | 28 | 14 | 9.7 | 16.1 | 0.00 | 0.00 | 0.00 | 50 | 1016.2 |
| 20260901194602 | 28 | 20 | 6.4 | 12.9 | 0.00 | 0.00 | 0.00 | 50 | 1016.2 |
| 20260901194054 | 28 | 5 | 4.8 | 8.0 | 0.00 | 0.00 | 0.00 | 50 | 1016.1 |
| 20260901193554 | 28 | 31 | 4.8 | 19.3 | 0.00 | 0.00 | 0.00 | 49 | 1016.2 |
| 20260901193104 | 28 | 81 | 6.4 | 19.3 | 0.00 | 0.00 | 0.00 | 49 | 1016.1 |
| 20260901192553 | 28 | 54 | 8.0 | 16.1 | 0.00 | 0.00 | 0.00 | 49 | 1016.2 |
| 20260901192054 | 28 | 13 | 8.0 | 19.3 | 0.00 | 0.00 | 0.00 | 49 | 1016.2 |
| 20260901191554 | 28 | 69 | 9.7 | 19.3 | 0.00 | 0.00 | 0.00 | 49 | 1016.2 |
| 20260901191055 | 28 | 59 | 8.0 | 19.3 | 0.00 | 0.00 | 0.00 | 49 | 1016.1 |
| 20260901190552 | 28 | 76 | 8.0 | 19.3 | 0.00 | 0.00 | 0.00 | 49 | 1016.1 |
| 20260901190052 | 28 | 46 | 8.0 | 17.7 | 0.00 | 0.00 | 0.00 | 49 | 1016.1 |
| 20260901185551 | 28 | 35 | 8.0 | 17.7 | 0.00 | 0.00 | 0.00 | 49 | 1016.0 |
| 20260901185051 | 28 | 55 | 9.7 | 19.3 | 0.00 | 0.00 | 0.00 | 49 | 1016.0 |
| 20260901184557 | 28 | 51 | 11.3 | 19.3 | 0.00 | 0.00 | 0.00 | 49 | 1015.9 |
| 20260901184053 | 28 | 37 | 6.4 | 17.7 | 0.00 | 0.00 | 0.00 | 49 | 1015.9 |
| 20260901183550 | 28 | 52 | 8.0 | 16.1 | 0.00 | 0.00 | 0.00 | 49 | 1015.9 |
| 20260901183050 | 28 | 46 | 8.0 | 16.1 | 0.00 | 0.00 | 0.00 | 48 | 1015.7 |
| 20260901182550 | 28 | 10 | 6.4 | 19.3 | 0.00 | 0.00 | 0.00 | 48 | 1015.7 |
| 20260901182050 | 28 | 65 | 9.7 | 19.3 | 0.00 | 0.00 | 0.00 | 48 | 1015.6 |
| 20260901181550 | 28 | 38 | 6.4 | 17.7 | 0.00 | 0.00 | 0.00 | 47 | 1015.6 |
| 20260901181049 | 29 | 39 | 9.7 | 17.7 | 0.00 | 0.00 | 0.00 | 47 | 1015.6 |
| 20260901180549 | 29 | 45 | 8.0 | 17.7 | 0.00 | 0.00 | 0.00 | 47 | 1015.6 |
| 20260901180049 | 29 | 42 | 9.7 | 16.1 | 0.00 | 0.00 | 0.00 | 47 | 1015.5 |
| 20260901175550 | 29 | 44 | 6.4 | 16.1 | 0.00 | 0.00 | 0.00 | 46 | 1015.4 |
| 20260901175049 | 30 | 53 | 6.4 | 19.3 | 0.00 | 0.00 | 0.00 | 46 | 1015.3 |
| 20260901174549 | 30 | 65 | 6.4 | 22.5 | 0.00 | 0.00 | 0.00 | 46 | 1015.3 |
| 20260901174049 | 30 | 41 | 11.3 | 22.5 | 0.00 | 0.00 | 0.00 | 45 | 1015.3 |
| 20260901173548 | 30 | 81 | 11.3 | 19.3 | 0.00 | 0.00 | 0.00 | 45 | 1015.2 |
| 20260901173048 | 30 | 118 | 8.0 | 20.9 | 0.00 | 0.00 | 0.00 | 45 | 1015.2 |
| 20260901172548 | 30 | 87 | 12.9 | 22.5 | 0.00 | 0.00 | 0.00 | 44 | 1015.1 |
| 20260901172048 | 30 | 106 | 11.3 | 22.5 | 0.00 | 0.00 | 0.00 | 44 | 1015.0 |
| 20260901171551 | 30 | 97 | 11.3 | 22.5 | 0.00 | 0.00 | 0.00 | 44 | 1015.2 |
| 20260901171047 | 30 | 88 | 9.7 | 17.7 | 0.00 | 0.00 | 0.00 | 44 | 1015.1 |
| 20260901170547 | 30 | 71 | 11.3 | 20.9 | 0.00 | 0.00 | 0.00 | 44 | 1015.1 |
| 20260901170148 | 30 | 60 | 12.9 | 20.9 | 0.00 | 0.00 | 0.00 | 44 | 1015.1 |
| 20260901165546 | 30 | 78 | 14.5 | 20.9 | 0.00 | 0.00 | 0.00 | 44 | 1015.0 |
| 20260901165046 | 30 | 97 | 8.0 | 20.9 | 0.00 | 0.00 | 0.00 | 44 | 1015.1 |
| 20260901164548 | 31 | 103 | 11.3 | 17.7 | 0.00 | 0.00 | 0.00 | 43 | 1015.1 |
| 20260901164045 | 31 | 96 | 8.0 | 19.3 | 0.00 | 0.00 | 0.00 | 43 | 1015.0 |
| 20260901163545 | 31 | 111 | 11.3 | 19.3 | 0.00 | 0.00 | 0.00 | 42 | 1014.9 |
| 20260901163045 | 31 | 104 | 6.4 | 19.3 | 0.00 | 0.00 | 0.00 | 42 | 1014.9 |
| 20260901162544 | 31 | 83 | 9.7 | 17.7 | 0.00 | 0.00 | 0.00 | 41 | 1014.8 |
| 20260901162044 | 31 | 126 | 8.0 | 17.7 | 0.00 | 0.00 | 0.00 | 41 | 1014.8 |
| 20260901161546 | 31 | 109 | 6.4 | 20.9 | 0.00 | 0.00 | 0.00 | 40 | 1014.8 |
| 20260901161046 | 32 | 94 | 8.0 | 20.9 | 0.00 | 0.00 | 0.00 | 39 | 1014.7 |
| 20260901160545 | 32 | 102 | 4.8 | 24.1 | 0.00 | 0.00 | 0.00 | 39 | 1014.7 |
| 20260901160050 | 32 | 88 | 11.3 | 24.1 | 0.00 | 0.00 | 0.00 | 37 | 1014.6 |
| 20260901155543 | 32 | 86 | 6.4 | 24.1 | 0.00 | 0.00 | 0.00 | 37 | 1014.6 |
| 20260901155043 | 32 | 68 | 11.3 | 25.7 | 0.00 | 0.00 | 0.00 | 36 | 1014.6 |
| 20260901154542 | 32 | 90 | 14.5 | 25.7 | 0.00 | 0.00 | 0.00 | 36 | 1014.6 |
| 20260901154039 | 33 | 100 | 9.7 | 25.7 | 0.00 | 0.00 | 0.00 | 36 | 1014.5 |
| 20260901153538 | 33 | 38 | 11.3 | 27.4 | 0.00 | 0.00 | 0.00 | 36 | 1014.5 |
| 20260901153038 | 33 | 5 | 9.7 | 27.4 | 0.00 | 0.00 | 0.00 | 36 | 1014.5 |
| 20260901152538 | 33 | 52 | 12.9 | 27.4 | 0.00 | 0.00 | 0.00 | 36 | 1014.4 |
| 20260901152041 | 33 | 83 | 12.9 | 29.0 | 0.00 | 0.00 | 0.00 | 36 | 1014.4 |
| 20260901151537 | 33 | 117 | 14.5 | 29.0 | 0.00 | 0.00 | 0.00 | 36 | 1014.4 |
| 20260901151038 | 33 | 67 | 16.1 | 29.0 | 0.00 | 0.00 | 0.00 | 36 | 1014.5 |
| 20260901150537 | 33 | 69 | 17.7 | 30.6 | 0.00 | 0.00 | 0.00 | 36 | 1014.5 |
| 20260901150054 | 33 | 94 | 19.3 | 30.6 | 0.00 | 0.00 | 0.00 | 36 | 1014.4 |
| 20260901145535 | 33 | 51 | 14.5 | 30.6 | 0.00 | 0.00 | 0.00 | 36 | 1014.4 |
| 20260901145035 | 33 | 109 | 22.5 | 30.6 | 0.00 | 0.00 | 0.00 | 36 | 1014.3 |
| 20260901144534 | 33 | 45 | 17.7 | 27.4 | 0.00 | 0.00 | 0.00 | 36 | 1014.3 |
| 20260901144034 | 33 | 74 | 16.1 | 29.0 | 0.00 | 0.00 | 0.00 | 36 | 1014.5 |
| 20260901143530 | 33 | 56 | 19.3 | 29.0 | 0.00 | 0.00 | 0.00 | 37 | 1014.6 |
| 20260901143030 | 33 | 80 | 19.3 | 29.0 | 0.00 | 0.00 | 0.00 | 36 | 1014.5 |
| 20260901142530 | 33 | 112 | 17.7 | 32.2 | 0.00 | 0.00 | 0.00 | 36 | 1014.4 |
| 20260901142029 | 33 | 74 | 19.3 | 32.2 | 0.00 | 0.00 | 0.00 | 36 | 1014.4 |
| 20260901141528 | 33 | 82 | 19.3 | 32.2 | 0.00 | 0.00 | 0.00 | 36 | 1014.4 |
| 20260901141027 | 33 | 82 | 20.9 | 32.2 | 0.00 | 0.00 | 0.00 | 36 | 1014.5 |
| 20260901140526 | 33 | 65 | 17.7 | 32.2 | 0.00 | 0.00 | 0.00 | 36 | 1014.5 |
| 20260901140026 | 33 | 113 | 14.5 | 32.2 | 0.00 | 0.00 | 0.00 | 36 | 1014.6 |
| 20260901135526 | 33 | 82 | 16.1 | 32.2 | 0.00 | 0.00 | 0.00 | 36 | 1014.7 |
| 20260901135029 | 33 | 76 | 20.9 | 35.4 | 0.00 | 0.00 | 0.00 | 35 | 1014.7 |
| 20260901134530 | 33 | 83 | 16.1 | 35.4 | 0.00 | 0.00 | 0.00 | 36 | 1014.6 |
| 20260901134025 | 33 | 98 | 24.1 | 32.2 | 0.00 | 0.00 | 0.00 | 36 | 1014.7 |
| 20260901133525 | 33 | 105 | 17.7 | 33.8 | 0.00 | 0.00 | 0.00 | 36 | 1014.6 |
| 20260901133021 | 33 | 61 | 22.5 | 33.8 | 0.00 | 0.00 | 0.00 | 36 | 1014.6 |
| 20260901132520 | 33 | 84 | 17.7 | 35.4 | 0.00 | 0.00 | 0.00 | 35 | 1014.7 |
| 20260901132021 | 33 | 90 | 20.9 | 35.4 | 0.00 | 0.00 | 0.00 | 35 | 1014.5 |
| 20260901131522 | 33 | 55 | 16.1 | 32.2 | 0.00 | 0.00 | 0.00 | 35 | 1014.6 |
| 20260901131016 | 34 | 89 | 19.3 | 37.0 | 0.00 | 0.00 | 0.00 | 35 | 1014.6 |
| 20260901130515 | 33 | 79 | 22.5 | 37.0 | 0.00 | 0.00 | 0.00 | 35 | 1014.6 |
| 20260901130014 | 33 | 106 | 17.7 | 35.4 | 0.00 | 0.00 | 0.00 | 35 | 1014.6 |
| 20260901125512 | 33 | 120 | 14.5 | 29.0 | 0.00 | 0.00 | 0.00 | 35 | 1014.6 |
| 20260901125011 | 33 | 78 | 16.1 | 32.2 | 0.00 | 0.00 | 0.00 | 35 | 1014.7 |
| 20260901124510 | 33 | 99 | 20.9 | 32.2 | 0.00 | 0.00 | 0.00 | 35 | 1014.7 |
| 20260901124009 | 33 | 128 | 16.1 | 30.6 | 0.00 | 0.00 | 0.00 | 35 | 1014.8 |
| 20260901123511 | 34 | 90 | 17.7 | 33.8 | 0.00 | 0.00 | 0.00 | 35 | 1014.9 |
| 20260901123015 | 33 | 109 | 16.1 | 33.8 | 0.00 | 0.00 | 0.00 | 34 | 1014.9 |
| 20260901122505 | 34 | 105 | 17.7 | 29.0 | 0.00 | 0.00 | 0.00 | 34 | 1015.1 |
| 20260901122003 | 33 | 86 | 14.5 | 29.0 | 0.00 | 0.00 | 0.00 | 35 | 1015.1 |
| 20260901121502 | 34 | 113 | 14.5 | 30.6 | 0.00 | 0.00 | 0.00 | 35 | 1015.1 |
| 20260901121101 | 33 | 71 | 14.5 | 33.8 | 0.00 | 0.00 | 0.00 | 34 | 1015.3 |
| 20260901120604 | 33 | 73 | 20.9 | 35.4 | 0.00 | 0.00 | 0.00 | 34 | 1015.1 |
| 20260901120113 | 33 | 96 | 14.5 | 33.8 | 0.00 | 0.00 | 0.00 | 34 | 1015.2 |
| 20260901115604 | 33 | 119 | 19.3 | 33.8 | 0.00 | 0.00 | 0.00 | 34 | 1015.3 |
| 20260901115100 | 33 | 91 | 17.7 | 29.0 | 0.00 | 0.00 | 0.00 | 34 | 1015.3 |
| 20260901114559 | 34 | 103 | 12.9 | 33.8 | 0.00 | 0.00 | 0.00 | 33 | 1015.3 |
| 20260901114057 | 33 | 48 | 19.3 | 33.8 | 0.00 | 0.00 | 0.00 | 33 | 1015.2 |
| 20260901113555 | 33 | 96 | 12.9 | 32.2 | 0.00 | 0.00 | 0.00 | 34 | 1015.3 |
| 20260901113059 | 33 | 74 | 20.9 | 35.4 | 0.00 | 0.00 | 0.00 | 34 | 1015.3 |
| 20260901112553 | 33 | 107 | 16.1 | 40.2 | 0.00 | 0.00 | 0.00 | 34 | 1015.2 |
| 20260901112051 | 33 | 58 | 20.9 | 32.2 | 0.00 | 0.00 | 0.00 | 34 | 1015.2 |
| 20260901111550 | 33 | 34 | 22.5 | 32.2 | 0.00 | 0.00 | 0.00 | 34 | 1015.2 |
| 20260901111047 | 33 | 70 | 20.9 | 37.0 | 0.00 | 0.00 | 0.00 | 34 | 1015.3 |
| 20260901110548 | 33 | 61 | 22.5 | 37.0 | 0.00 | 0.00 | 0.00 | 34 | 1015.3 |
| 20260901110045 | 33 | 44 | 14.5 | 29.0 | 0.00 | 0.00 | 0.00 | 34 | 1015.3 |
| 20260901105543 | 33 | 60 | 14.5 | 32.2 | 0.00 | 0.00 | 0.00 | 34 | 1015.3 |
| 20260901105045 | 33 | 71 | 19.3 | 32.2 | 0.00 | 0.00 | 0.00 | 33 | 1015.4 |
| 20260901104551 | 33 | 81 | 16.1 | 35.4 | 0.00 | 0.00 | 0.00 | 33 | 1015.5 |
| 20260901104042 | 33 | 60 | 20.9 | 35.4 | 0.00 | 0.00 | 0.00 | 33 | 1015.4 |
| 20260901103540 | 33 | 67 | 16.1 | 30.6 | 0.00 | 0.00 | 0.00 | 33 | 1015.6 |
| 20260901103041 | 33 | 117 | 16.1 | 25.7 | 0.00 | 0.00 | 0.00 | 34 | 1015.6 |
| 20260901102540 | 33 | 55 | 16.1 | 32.2 | 0.00 | 0.00 | 0.00 | 33 | 1015.7 |
| 20260901102041 | 33 | 79 | 16.1 | 35.4 | 0.00 | 0.00 | 0.00 | 33 | 1015.7 |
| 20260901101540 | 33 | 74 | 16.1 | 35.4 | 0.00 | 0.00 | 0.00 | 34 | 1015.9 |
| 20260901101039 | 33 | 80 | 22.5 | 35.4 | 0.00 | 0.00 | 0.00 | 33 | 1015.8 |
| 20260901100539 | 33 | 74 | 9.7 | 27.4 | 0.00 | 0.00 | 0.00 | 34 | 1015.8 |